Weather in Dedovsk

Russia / Moscow Oblast     55°51′35″N   37°07′14″E
temp.,
°C
wind,
m/s
gust,
m/s
humid.,
%
clouds,
%
prec.,
mm/h
press.,
hPa
HPBL,
m
16 june, wed
wed1600:00+15nw24910 0.0 101068
03:00+14nw37940 0.0 1011138
06:00+15nnw398836 0.0 1011278
09:00+19nnw5772100 0.0 1013705
12:00+21nnw46565 0.0 10141408
15:00+23nnw55405 0.0 10142210
18:00+21n4648100 0.0 10151212
21:00+15nnw22700 0.0 101737
17 june, thu
thu1700:00+12nnw22764 0.0 101926
03:00+11n23795 0.0 102138
06:00+13n24735 0.0 1022121
09:00+19nne34515 0.0 1023598
12:00+22n33385 0.0 10241527
15:00+23n333788 0.0 10241854
18:00+23n23470 0.0 10241807
21:00+17nne11690 0.0 102511
18 june, fri
fri1800:00+14ssw22730 0.0 102614
03:00+13sw22805 0.0 102717
06:00+15wsw127649 0.0 102879
09:00+21wsw22555 0.0 1028500
12:00+25sw22437 0.0 10271668
15:00+26sw334112 0.0 10261947
18:00+25sw34534 0.0 1025853
21:00+18sw36790 0.0 102699
19 june, sat
sat1900:00+15sw37863 0.0 1027136
03:00+14sw369337 0.0 1028123
06:00+16wsw278512 0.0 1028183
09:00+22sw34610 0.0 1028620
12:00+25sw34450 0.0 10271361
15:00+27sw34390 0.0 10251550
18:00+25ssw345047 0.0 1024647
21:00+19ssw3476100 0.0 102565
20 june, sun
sun2000:00+16sw34895 0.0 102671
03:00+15sw24950 0.0 102670
06:00+17sw24850 0.0 1026137
09:00+22ssw24600 0.0 1026666
12:00+26ssw34450 0.0 10241351
15:00+27ssw34400 0.0 10231718
18:00+26sw34510 0.0 10221029
21:00+19ssw23790 0.0 102345